CW2971 Weather Reports


Display with metric or nautical units.
time (UTC)temp
F
wind
direction
speed
MPH
gust
MPH
rain 1hr
in
rain 24hr
in
rain mn
in
humidity
%
barometer
mb
20260505124528 65 269 3.0 11.0 0.00 0.00 0.00 64 1015.2
20260505123044 64 217 4.0 13.0 0.00 0.00 0.00 64 1015.3
20260505121534 63 216 3.0 9.0 0.00 0.00 0.00 67 1015.2
20260505120037 61 257 4.0 9.0 0.00 0.00 0.00 69 1015.1
20260505114541 60 220 4.0 9.0 0.00 0.00 0.00 71 1015.1
20260505113029 59 138 3.0 10.0 0.00 0.00 0.00 72 1015.1
20260505111528 58 120 3.0 8.0 0.00 0.00 0.00 74 1014.9
20260505101530 57 265 2.0 6.0 0.00 0.00 0.00 75 1014.4
20260505100031 57 248 1.0 8.0 0.00 0.00 0.00 74 1014.1
20260505094530 58 229 1.0 7.0 0.00 0.00 0.00 74 1014.0
20260505093034 58 233 1.0 6.0 0.00 0.00 0.00 73 1013.9
20260505091540 58 98 1.0 6.0 0.00 0.00 0.00 72 1013.8
20260505090043 59 221 2.0 6.0 0.00 0.00 0.00 72 1013.7
20260505084528 59 235 2.0 10.0 0.00 0.00 0.00 72 1013.8
20260505083028 59 261 1.0 5.0 0.00 0.00 0.00 71 1013.8
20260505081538 60 259 1.0 7.0 0.00 0.00 0.00 70 1013.8
20260505080046 60 252 4.0 10.0 0.00 0.00 0.00 69 1013.5
20260505074530 60 277 2.0 6.0 0.00 0.00 0.00 69 1013.4
20260505073100 60 252 2.0 10.0 0.00 0.00 0.00 69 1013.1
20260505071529 61 211 2.0 8.0 0.00 0.00 0.00 68 1013.1
20260505070028 61 205 2.0 8.0 0.00 0.00 0.00 68 1013.0
20260505064530 61 264 2.0 8.0 0.00 0.00 0.00 67 1013.1
20260505063028 62 140 2.0 12.0 0.00 0.00 0.00 66 1013.3
20260505061529 62 319 3.0 8.0 0.00 0.00 0.00 65 1013.4
20260505060029 62 263 3.0 9.0 0.00 0.00 0.00 64 1013.3
20260505054526 63 272 3.0 9.0 0.00 0.00 0.00 63 1013.5
20260505053030 63 243 3.0 12.0 0.00 0.00 0.00 63 1013.6
20260505051528 63 214 4.0 10.0 0.00 0.00 0.00 63 1013.7
20260505041545 64 243 4.0 9.0 0.00 0.00 0.00 63 1013.7
20260505040030 64 47 2.0 9.0 0.00 0.00 0.00 63 1013.7
20260505034528 64 342 2.0 9.0 0.00 0.00 0.00 62 1013.5
20260505033026 65 269 3.0 12.0 0.00 0.00 0.00 62 1013.5
20260505031536 65 301 4.0 16.0 0.00 0.00 0.00 62 1013.5
20260505030036 65 68 4.0 10.0 0.00 0.00 0.00 62 1013.4
20260505024528 65 233 3.0 15.0 0.00 0.00 0.00 62 1013.4
20260505023036 65 229 3.0 15.0 0.00 0.00 0.00 64 1013.3
20260505021529 65 203 3.0 9.0 0.00 0.00 0.00 64 1013.4
20260505020034 65 165 3.0 11.0 0.00 0.00 0.00 64 1013.5
20260505014529 66 250 3.0 10.0 0.00 0.00 0.00 64 1013.4
20260505013028 66 224 3.0 7.0 0.00 0.00 0.00 64 1013.4
20260505011530 66 130 3.0 8.0 0.00 0.00 0.00 63 1013.2
20260505010026 67 237 3.0 8.0 0.00 0.00 0.00 62 1012.8
20260505004536 67 230 2.0 9.0 0.00 0.00 0.00 61 1012.6
20260505003029 68 156 2.0 12.0 0.00 0.00 0.00 60 1012.4
20260505001527 68 259 3.0 11.0 0.00 0.00 0.00 59 1012.3
20260505000031 69 236 4.0 12.0 0.00 0.00 0.00 58 1012.3
20260504234528 70 156 3.0 11.0 0.00 0.00 0.00 56 1012.1
20260504233032 71 169 4.0 13.0 0.00 0.00 0.00 55 1012.0
20260504231528 72 115 2.0 10.0 0.00 0.00 0.00 53 1011.7
20260504230027 75 209 4.0 12.0 0.00 0.00 0.00 48 1011.7
20260504224529 77 231 5.0 15.0 0.00 0.00 0.00 43 1011.5
20260504223027 78 183 4.0 13.0 0.00 0.00 0.00 35 1011.4
20260504221534 78 238 4.0 15.0 0.00 0.00 0.00 35 1011.4
20260504220028 78 211 3.0 14.0 0.00 0.00 0.00 35 1011.5
20260504214528 79 227 4.0 14.0 0.00 0.00 0.00 34 1011.4
20260504213052 78 266 4.0 15.0 0.00 0.00 0.00 35 1011.6
20260504211530 79 269 3.0 13.0 0.00 0.00 0.00 35 1011.6
20260504210030 78 211 4.0 10.0 0.00 0.00 0.00 35 1011.7
20260504204530 78 290 5.0 12.0 0.00 0.00 0.00 35 1011.7
20260504203033 78 180 4.0 12.0 0.00 0.00 0.00 35 1011.7
20260504201533 78 230 4.0 12.0 0.00 0.00 0.00 36 1011.7
20260504200030 78 309 4.0 14.0 0.00 0.00 0.00 36 1011.7
20260504194530 77 283 4.0 17.0 0.00 0.00 0.00 35 1011.9
20260504193034 78 266 3.0 11.0 0.00 0.00 0.00 36 1012.1
20260504191529 77 207 3.0 10.0 0.00 0.00 0.00 36 1012.3
20260504190029 76 217 4.0 13.0 0.00 0.00 0.00 38 1012.5
20260504184532 76 246 4.0 12.0 0.00 0.00 0.00 37 1012.7
20260504183030 75 360 6.0 11.0 0.00 0.00 0.00 38 1012.7
20260504181529 75 243 5.0 11.0 0.00 0.00 0.00 40 1013.1
20260504180030 75 240 5.0 13.0 0.00 0.00 0.00 38 1013.3
20260504174528 74 231 3.0 10.0 0.00 0.00 0.00 41 1013.3
20260504173037 74 235 3.0 13.0 0.00 0.00 0.00 43 1013.4
20260504171528 73 255 2.0 13.0 0.00 0.00 0.00 40 1013.6